www.pogodaiklimat.ru

Погода и климат >> Архив погоды >> Россия >> Якутия >> Тюмяти


ПОГОДА в Тюмяти

  • Прогноз погоды в Тюмяти
  • Монитор погоды в Тюмяти

АРХИВ ПОГОДЫ в Тюмяти

Время (UTC), дата Ветер
(напр.,м/с)
 
Видим.   Явления Облачность Т
(С)
Тd
(С)
f
(%)
Тe
(С)
Тes
(С)
Комфортность P
(гПа)
Po
(гПа)
Тmin
(С)
Tmax
(С)
R
(мм)
R24
(мм)
S
(см)
21 18.08 штиль 0 10 км дым 10/10 600 м
[Sc]
+9.1 +7.6 90 +8 +8 1017.2 1013.9
00 19.08 штиль 0 10 км дымка 10/10 600 м
[Sc]
+9.3 +8.5 95 +8 +8 1017.3 1014.0 +8.4
03 19.08 штиль 0 10 км дымка 10/10 600 м
[Sc]
+9.7 +8.3 91 +9 +9 1017.3 1014.0
06 19.08 штиль 0 10 км дым 10/10 600 м
[Sc]
+11.2 +8.8 85 +11 +11 1017.2 1014.0
09 19.08 штиль 0 10 км дым 10/0
[Cs]
+12.9 +10.0 83 +12 +14 1017.2 1014.0
12 19.08 штиль 0 10 км дым 10/0
[Cs]
+11.6 +9.8 89 +11 +11 1017.6 1014.4 +13.6
15 19.08 штиль 0 4000 м дымка 10/0
[Cs]
+7.3 +6.9 97 +6 +6 1018.4 1015.1
18 19.08 штиль 0 4000 м дымка 10/0
[Cs]
+4.1 +3.9 99 +3 +3 1018.1 1014.8
21 19.08 штиль 0 4000 м дымка 10/0
[Cs]
+4.1 +3.6 97 +3 +3 1019.5 1016.2
00 20.08 штиль 0 2000 м дымка 10/0
[Cs]
+5.9 +5.4 97 +5 +8 1020.5 1017.2 +2.0
03 20.08 штиль 0 10 км дым 10/0
[Cs]
+12.1 +9.1 82 +12 +17 1020.3 1017.1
06 20.08 С 2 10 км дым 10/0
[Cs]
+17.8 +10.3 61 +18 +22 1020.1 1016.9
09 20.08 С 2 10 км дым 10/0
[Cs]
+16.3 +10.9 70 +16 +18 1020.9 1017.7
12 20.08 С 2 10 км дым 10/0
[Cs]
+10.5 +9.3 92 +9 +9 1022.3 1019.0 +18.3
15 20.08 С 2 10 км дымка 10/8 600 м
[Sc Cs]
+7.7 +6.6 93 +6 +6 1023.2 1019.9
18 20.08 С 2 20 км 10/10 600 м
[Sc]
+7.4 +6.1 91 +5 +5 1023.8 1020.5
21 20.08 С 2 20 км 10/10 600 м
[Sc]
+7.2 +5.9 91 +5 +5 1024.0 1020.7
00 21.08 СВ 2 20 км 10/10 600 м
[Sc]
+7.4 +5.4 87 +5 +5 1024.3 1021.0 +6.7
03 21.08 СВ 2 20 км 10/10 600 м
[Sc]
+9.2 +6.9 86 +7 +7 1024.2 1020.9
06 21.08 СВ 2 20 км 10/10 600 м
[Sc]
+11.4 +8.1 80 +10 +10 1023.8 1020.6
09 21.08 СВ 2 20 км 10/10 600 м
[Sc]
+10.8 +8.4 85 +9 +9 1023.8 1020.5
12 21.08 С 2 20 км 10/10 600 м
[Sc]
+9.2 +7.3 88 +7 +7 1024.1 1020.8 +12.2
15 21.08 С 2 10 км слаб. дождь 10/10 600 м
[Sc]
+8.7 +7.6 93 +7 +7 1023.4 1020.1
18 21.08 С 2 20 км {дождь} 10/10 600 м
[Sc]
+8.6 +6.9 89 +7 +7 1023.1 1019.8
21 21.08 С 2 10 км дымка 10/10 600 м
[Sc]
+8.6 +7.3 92 +7 +7 1022.4 1019.1
00 22.08 СВ 2 10 км дымка 10/10 600 м
[Sc]
+9.6 +7.9 89 +8 +8 1021.9 1018.6 +7.8 0.0
03 22.08 В 2 10 км дым 10/6 600 м
[Sc]
+10.5 +7.8 83 +9 +10 1021.0 1017.7
06 22.08 СВ 2 10 км дым 10/10 600 м
[Sc]
+11.2 +8.4 83 +10 +10 1019.6 1016.4
09 22.08 СВ 2 10 км слаб. дождь 10/10 600 м
[Sc]
+10.7 +8.5 86 +9 +9 1019.2 1015.9
12 22.08 СВ 2 10 км слаб. дождь 10/10 600 м
[Sc]
+9.9 +8.5 91 +8 +8 1018.2 1014.9 +12.1 0.0
15 22.08 С 2 10 км дымка {дождь} 10/10 600 м
[Sc]
+9.3 +8.3 93 +7 +7 1017.5 1014.2
18 22.08 штиль 0 10 км дымка {дождь} 10/10 600 м
[Sc]
+8.7 +8.1 96 +8 +8 1016.1 1012.8
21 22.08 штиль 0 10 км дымка 10/10 600 м
[Sc]
+8.5 +7.7 95 +8 +8 1015.2 1011.9
00 23.08 штиль 0 10 км дымка 10/10 600 м
[Sc]
+8.3 +7.2 93 +7 +7 1014.7 1011.4 +8.0 0.0
03 23.08 штиль 0 10 км дымка 10/10 600 м
[Sc]
+9.6 +7.3 86 +9 +9 1013.9 1010.7
06 23.08 В 2 10 км дымка 10/10 600 м
[Sc]
+9.8 +7.7 87 +8 +8 1012.4 1009.2
09 23.08 штиль 0 10 км дымка 10/10 600 м
[Sc]
+9.9 +8.3 90 +9 +9 1011.5 1008.3
12 23.08 штиль 0 10 км дымка 10/10 600 м
[Sc]
+9.1 +8.1 93 +8 +8 1010.9 1007.6 +10.6
15 23.08 штиль 0 10 км дымка 10/10 600 м
[Sc]
+8.9 +8.3 96 +8 +8 1010.0 1006.8
18 23.08 штиль 0 10 км дымка 10/10 600 м
[Sc]
+8.4 +8.0 97 +7 +7 1009.2 1006.0
21 23.08 штиль 0 10 км дымка 10/6 600 м
[Sc Ac trans]
+8.7 +8.1 96 +8 +8 1008.2 1005.0
00 24.08 штиль 0 10 км дымка 10/10 600 м
[Sc]
+9.4 +8.6 95 +9 +9 1007.2 1004.0 +8.1
03 24.08 штиль 0 10 км слаб. дождь 10/10 600 м
[Sc]
+10.2 +9.4 95 +9 +9 1006.8 1003.6
06 24.08 штиль 0 10 км слаб. дождь 10/10 600 м
[Sc]
+11.0 +9.4 90 +10 +10 1006.3 1003.1
09 24.08 штиль 0 10 км слаб. дождь 10/10 600 м
[Sc]
+10.8 +10.0 95 +10 +10 1006.0 1002.8
12 24.08 штиль 0 10 км слаб. дождь 10/10 300 м
[Sc]
+10.4 +9.8 96 +10 +10 1006.0 1002.8 +11.8 1
15 24.08 штиль 0 10 км пыльная буря {дождь} 10/10 300 м
[Sc]
+10.2 +9.8 97 +9 +9 1005.6 1002.4
18 24.08 штиль 0 10 км слаб. морось {дождь} 10/10 300 м
[St]
+10.4 +10.0 97 +10 +10 1005.0 1001.8
21 24.08 штиль 0 10 км слаб. морось 10/10 300 м
[St]
+10.2 +9.8 97 +9 +9 1005.1 1001.9
00 25.08 штиль 0 10 км дымка 10/10 600 м
[Sc]
+10.8 +10.6 99 +10 +10 1005.3 1002.1 +9.4 0.5
03 25.08 С 2 10 км дымка 9/8 600 м
[Sc Ac trans]
+12.3 +10.8 91 +11 +12 1005.6 1002.4
06 25.08 С 2 10 км дым 6/4 600 м
[Sc Ac trans Ci fib]
+15.7 +11.4 76 +16 +18 1005.5 1002.4
09 25.08 С 2 10 км дым 9/6 300 м
[Cb cap Ac trans]
+15.1 +11.8 81 +15 +15 1005.8 1002.6
12 25.08 штиль 0 10 км дымка {ливн. осадки} 10/8 600 м
[Cb cap Ac trans]
+11.6 +10.6 94 +11 +11 1007.0 1003.8 +16.4 0.8
15 25.08 штиль 0 10 км дымка 10/8 600 м
[Sc Ac trans]
+8.4 +8.0 97 +7 +7 1008.2 1005.0
18 25.08 штиль 0 10 км дымка 10/10 600 м
[Sc]
+8.1 +7.5 96 +7 +7 1008.9 1005.7

 

Местоположение метеостанции Тюмяти (Якутия, Россия): широта 71.92 долгота 123.50 высота над уровнем моря 27 м.

В архиве по умолчанию представлена погода в Тюмяти за последнюю неделю. Архивные данные за месяц целиком и за предыдущие месяцы, начиная с января 2011 года, Вы можете получить, выбрав интересующий диапазон дат из раскрывающегося списка и нажав кнопку "Ввод!".


*Определитесь, кто Вы:
робот инопланетянин человек

Внимание! Время в таблицах - всемирное. Для получения местного времени необходимо прибавить поправку, которая равна 9 ч.

Смотрите также архив погоды в соседних городах и на ближайших метеорологических станциях:

Погода на Столб Острове (Якутия, Россия) (109 км)
Погода на Усть-Оленеке (Якутия, Россия) (173 км)
Погода в Тикси (Якутия, Россия) (192 км)
Погода на Мысе Быков (Якутия, Россия) (193 км)
Погода в Кюсюре (Якутия, Россия) (196 км)
Погода в Саскылахе (Якутия, Россия) (327 км)
Погода в Джарджане (Якутия, Россия) (355 км)
Погода в Анабаре (Якутия, Россия) (363 км)
Погода в Джалинде (Якутия, Россия) (400 км)
Погода в Сухане (Якутия, Россия) (415 км)

Пояснения к столбцам:

Ветер - указаны скорость ветра в м/с - средняя за 10 мин, порывы в срок и между сроками (в фигурных скобках) и направление, откуда дует ветер: С - северный, СВ - северо-восточный, В - восточный, ЮВ - юго-восточный, Ю - южный, ЮЗ - юго-западный, З - западный, СЗ - северо-западный.
Видимость - горизонтальная дальность видимости в метрах или километрах. При видимости от 1 до 10 км при отсутствии осадков обычно наблюдается дымка, при ухудшении видимости до 1 км и менее - туман. В сухую погоду видимость может ухудшаться дымом, пылью или мглою.
Явления - указаны атмосферные явления, наблюдавшиеся в срок или в последний час перед сроком; фигурными скобками обозначены явления, наблюдавшиеся между сроками (за 1-3 часа до срока); квадратными скобками обозначены град или гололедные отложения с указанием их диаметра в мм.
Облачность - указаны через наклонную черту общая и нижняя облачность в баллах и высота нижней границы облаков в метрах; квадратными скобками обозначены формы облаков: Ci - перистые, Cs - перисто-слоистые, Cc - перисто-кучевые, Ac - высококучевые, As - высокослоистые, Sc - слоисто-кучевые, Ns - слоисто-дождевые, Cu - кучевые, Cb - кучево-дождевые. Подробнее классификацию облаков см. в Атласе облаков (PDF).
T - Температура воздуха - температура, измеренная на высоте 2 м над землей.
Td - Температура точки росы - температура, при понижении до которой содержащийся в воздухе водяной пар достигнет насыщения.
f - Относительная влажность воздуха - влажноcть воздуха, измеренная на высоте 2 м над землей.
Te - Эффективная температура - температура, которую ощущает одетый по сезону человек в тени. Характеристика душности погоды. При расчете учитывается влияние влажности воздуха и скорости ветра на теплоощущения человека.
Tes - Эффективная температура на солнце - температура, которую ощущает человек, с поправкой на солнечный нагрев. Характеристика знойности погоды. Зависит от высоты солнца над горизонтом, облачности и скорости ветра. Ночью, в пасмурную погоду, а также при ветре 12 м/с и более поправка равна нулю.
P - Атмосферное давление - приведенное к уровню моря атмосферное давление.
Po - Атмосферное давление - измеренное на уровне метеостанции атмосферное давление.
Tmin - Минимальная температура - минимум температуры воздуха на высоте 2 м над землей.
Tmax - Максимальная температура - максимум температуры воздуха на высоте 2 м над землей.
R - Количество осадков - Количество выпавших осадков за период времени, мм. При наведении курсора мыши на число - период времени, за который выпало указанное количество осадков.
R24 - Количество осадков - Количество выпавших осадков за 24 часа, мм.
S - Снежный покров - Высота снежного покрова, см. При наведении курсора мыши на число - состояние снежного покрова и степень покрытия местности в баллах.